Regional Weather Roundup
Issued by NWS

Home | Current Version | Previous Version | Graphics & Text | Print | Product List | Glossary On
Versions: 1 2 3 4 5 6 7 8 9 10 11 12 13 14 15 16 17 18 19 20 21 22 23 24 25 26 27 28 29 30 31 32 33 34 35 36 37 38 39 40 41 42 43 44 45 46 47 48 49 50
000
ASUS43 KLOT 291521
RWRIL

ILLINOIS REGIONAL WEATHER ROUNDUP
NATIONAL WEATHER SERVICE CHICAGO/ROMEOVILLE IL
1000 AM CDT SAT AUG 29 2015

NOTE: "FAIR" INDICATES FEW OR NO CLOUDS BELOW 12,000 FEET WITH NO
SIGNIFICANT WEATHER AND/OR OBSTRUCTIONS TO VISIBILITY.

* THESE STATIONS ARE NOT UNDER NWS QUALITY CONTROL. THEY ALSO MAY NOT
  REPORT WEATHER SUCH AS PRECIPITATION OR FOG.

ILZ001-002-007-009-015-016-024-291600-
NORTHWEST ILLINOIS

CITY           SKY/WX    TMP DP  RH WIND       PRES   REMARKS
MOLINE         CLOUDY    70  64  81 CALM      29.99R
STERLING*      CLOUDY    66  63  88 E6        30.00R
SAVANNA*       CLOUDY    67  64  89 CALM      30.00R
$$

ILZ003-004-008-010-011-017-018-291600-
NORTH CENTRAL ILLINOIS

CITY           SKY/WX    TMP DP  RH WIND       PRES   REMARKS
ROCKFORD       CLOUDY    64  62  93 SE5       30.04S FOG
FREEPORT*      CLOUDY    63  62  97 SE6       30.04R FOG
ROCHELLE*      LGT RAIN  63  62  98 SE5       30.03S
DE KALB*       RAIN      64  62  96 E6        30.04S
PERU*          PTSUNNY   71  64  78 S8        30.02R
$$

ILZ005-006-012>014-019>023-291600-
NORTHEAST ILLINOIS

CITY           SKY/WX    TMP DP  RH WIND       PRES   REMARKS
CHICAGO-OHARE  CLOUDY    65  63  93 E9        30.03F
CHICAGO-MIDWAY CLOUDY    68  63  84 SE8       30.04F
AURORA         CLOUDY    67  64  90 SE9       30.03F FOG
LANSING*       RAIN      65  63  93 SE7       30.06S
JOLIET*        CLOUDY    69  65  88 SE7       30.04S
WAUKEGAN       LGT RAIN  61  60  97 SE5       30.04F FOG
DUPAGE AIRPORT CLOUDY    65  62  90 SE7       30.03F FOG
KANKAKEE*      CLOUDY    69  65  87 CALM      30.06R
WHEELING       CLOUDY    64  62  93 E5        30.05S FOG
MORRIS*        CLOUDY    68  64  85 SE3       30.02S
ROMEOVILLE*    CLOUDY    66  63  89 SE6       30.04S
NORTHERLY ISL    N/A     64  62  93 SE7         N/A
$$

LMZ740>746-291600-
SOUTHERN LAKE MICHIGAN

STATION/POSITION SKY/WX   TEMP    WIND        PRES    VSBY  WAVE
                          AIR SEA DIR/SP/G                  HT/PER
                          (F)     (DEG/KT/KT) (MB)    (MI)  (FT/S)
SOUTHERN BUOY              66 68  140/  8/ 10 1017.6F
WILMETTE HARBOR            63 56  280/  8/ 14   N/A           1/ 3
HARRISON CRIB              66      90/  9/ 10   N/A
BURNHAM HARBOR             65     130/  5/  8   N/A
BURNS HARBOR               65      80/  6/  9 1019.0R
MICHIGAN CITY              64     100/  7/  8   N/A
MICHIGAN CITY 6N           66 70  100/ 10/ 12   N/A           1
ST. JOSEPH                 65 71  160/ 12/ 14   N/A           1
$$

ILZ025>027-034>036-040-047-049-050-058-095>099-291600-
WEST-CENTRAL ILLINOIS

CITY           SKY/WX    TMP DP  RH WIND       PRES   REMARKS
QUINCY         SUNNY     76  65  68 S8        30.00R
GALESBURG*     CLOUDY    71  64  80 SW8       30.00R
MACOMB*        CLOUDY    73  64  73 SW7       30.02R
JACKSONVILLE*  CLOUDY    74  66  76 S7        30.02R
PITTSFIELD*    MOSUNNY   73  65  77 S6        30.02S
$$

ILZ028>032-037-038-041>044-048-051>054-059>061-291600-
CENTRAL ILLINOIS

CITY           SKY/WX    TMP DP  RH WIND       PRES   REMARKS
PONTIAC        CLOUDY    71  66  84 S9        30.03S
BLOOMINGTON    CLOUDY    71  67  87 S8        30.05R
DECATUR        CLOUDY    73  65  75 S8        30.04S
PEORIA         PTSUNNY   73  65  75 S9        30.01R
LACON*         MOSUNNY   71  64  79 S6        30.00S
LINCOLN*       CLOUDY    73  66  80 S8        30.02S
SPRINGFIELD    CLOUDY    72  66  81 S6        30.02S
TAYLORVILLE    CLOUDY    68  64  88 S13       30.03F
$$

ILZ033-039-045-046-055>057-062-063-291600-
EAST-CENTRAL ILLINOIS

CITY           SKY/WX    TMP DP  RH WIND       PRES   REMARKS
CHAMPAIGN      CLOUDY    74  65  73 S8        30.05S
RANTOUL*       CLOUDY    73  67  82 S3        30.06R
MATTOON        CLOUDY    74  65  73 S7        30.05S
PARIS*         PTSUNNY   75  67  77 S8        30.07S
$$

ILZ079-100>102-291600-
SOUTHWEST ILLINOIS

CITY           SKY/WX    TMP DP  RH WIND       PRES   REMARKS
ALTON          CLOUDY    72  66  83 S8        30.03S
BELLEVILLE     CLOUDY    73  71  92 VRB2      30.03S
CAHOKIA*       CLOUDY    75  66  73 S5        30.04R
SPARTA*        CLOUDY    72  68  86 S3        30.06S
$$

ILZ064>066-069>071-074>076-080>082-084>086-088>090-092>094-291600-
SOUTH-CENTRAL ILLINOIS

CITY           SKY/WX    TMP DP  RH WIND       PRES   REMARKS
CARBONDALE     CLOUDY    74  67  78 S7        30.06S
CAIRO*         MOSUNNY   77  73  87 S8        30.08R
EFFINGHAM*     CLOUDY    74  64  69 SE6       30.07R
MARION         CLOUDY    75  70  83 S8        30.08R
MT. VERNON     CLOUDY    75  66  73 S6        30.08R
SALEM*         CLOUDY    75  67  75 S8        30.06R
METROPOLIS*    PTSUNNY   77  73  87 CALM      30.09S
$$

ILZ067-068-072-073-078-083-087-091-291600-
SOUTHEAST ILLINOIS

CITY           SKY/WX    TMP DP  RH WIND       PRES   REMARKS
LAWRENCEVILLE  PTSUNNY   79  68  69 S12       30.08S HX  81
FLORA*         PTSUNNY   74  66  76 S6        30.07R
FAIRFIELD*     CLOUDY    76  68  77 S8        30.07R
HARRISBURG*    CLOUDY    76  70  82 S6        30.08R
ROBINSON*      PTSUNNY   78  67  70 S9        30.08S
CARMI*         CLOUDY    74  70  86 S8        30.08R
$$

ABBREVIATIONS USED IN REMARKS
   TC - TEMPERATURE IN CELSIUS
  WCI - WIND CHILL INDEX
   HX - HEAT INDEX
  VSB - VISIBILITY
$$



USA.gov is the U.S. government's official web portal to all federal, state and local government web resources and services.